Location: Assche-ter-Heiden
(50.9174°N, 4.1574°E)
Time: 22:31:09
(UTC+00:00)

Cosmos 962 Rocket - Pass Details

Date: 20 January 2020
Orbit: 951 x 999 km, 83.0° (Epoch: 16 February)

Event Time Altitude Azimuth Distance (km) Brightness Sun altitude
Rises 05:03:20 0° 350° (N) 3,678 7.4 -23.5°
Reaches altitude 10° 05:05:50 10° 350° (N) 2,734 6.7 -23.1°
Maximum altitude 05:12:08 88° 81° (E) 991 4.5 -22.1°
Drops below altitude 10° 05:18:27 10° 172° (S) 2,747 7.0 -21.1°
Sets 05:20:59 0° 172° (S) 3,696 7.7 -20.7°
